#timestamp,LO_Frequency,Hit,StdDev 
1541178015.2,286047001.7,N
1541178035.0,286047002.5,N
1541178035.9,286047002.5,N
1541178055.7,286047003.7,N
1541178075.6,286047004.4,N
1541178095.4,286047005.8,Y
1541178115.3,286047004.3,P
1541178135.1,286047003.1,N
1541178136.0,286047003.1,N
1541178155.8,286047001.4,N
1541178175.7,286047005.9,Y
1541178195.5,286047002.7,P
1541178215.4,286047000.5,P
1541178235.2,286047000.1,N
1541178255.0,286046999.8,N
1541178255.9,286046999.8,N
1541178275.8,286047001.9,N
1541178295.6,286047004.1,Y
1541178315.5,286047004.3,P
1541178335.3,286047002.3,N
1541178355.1,286047001.6,N
1541178375.9,286047004.2,Y
1541178395.7,286047003.9,P
1541178415.6,286047004.4,P
1541178435.4,286047002.6,N
1541178455.2,286047002.1,N
1541178475.1,286047002.6,N
1541178476.0,286047002.6,Y
1541178495.8,286046999.5,P
1541178515.6,286046998.4,N
1541178535.5,286046998.1,N
1541178555.3,286047000.7,N
1541178575.2,286047000.4,N
1541178595.9,286047002.4,N
1541178615.7,286047002.4,N
1541178635.6,286047004.4,N
1541178655.4,286047004.0,N
1541178675.2,286047002.2,N
1541178695.1,286047002.7,N
1541178696.0,286047002.7,N
1541178715.8,286047002.6,N
1541178735.7,286047002.1,N
1541178755.5,286047001.7,N
1541178775.3,286047001.7,N
1541178795.2,286047001.7,N
1541178815.0,286047003.2,N
1541178815.9,286047003.2,N
1541178835.8,286047005.9,Y
1541178855.6,286047004.0,P
1541178875.4,286047002.0,N
1541178895.3,286047004.1,P
1541178915.1,286047004.4,Y
1541178935.9,286047000.2,P
1541178955.7,286046999.8,N
1541178975.5,286047000.1,N
1541178995.4,286046998.2,N
1541179015.2,286047000.7,N
1541179035.0,286047000.6,N
1541179035.9,286047000.6,N
1541179055.8,286047001.0,N
1541179075.6,286046998.7,N
1541179095.5,286047000.4,N
1541179115.3,286046999.9,N
1541179135.1,286046998.3,N
1541179155.9,286047000.8,N
1541179175.7,286047002.6,N
1541179195.5,286047001.5,N
1541179215.4,286047001.8,N
1541179235.2,286047004.4,Y
1541179255.1,286047002.8,P
1541179256.0,286047002.8,N
1541179275.8,286047002.4,N
1541179295.6,286047001.9,N
1541179315.5,286047001.5,N
1541179335.3,286047003.9,Y
1541179355.2,286047001.9,P
1541179375.9,286047002.8,P
1541179395.7,286047001.0,N
1541179415.6,286047000.5,N
1541179435.4,286047002.6,Y
1541179455.3,286046998.2,P
1541179475.1,286047000.9,N
1541179476.0,286047000.9,N
1541179495.8,286047001.6,N
1541179515.7,286047002.5,N
1541179535.5,286047002.6,N
1541179555.3,286047002.8,N
1541179575.2,286047001.9,N
1541179595.0,286047001.9,N
1541179595.9,286047001.9,N
1541179615.8,286047001.6,N
1541179635.6,286047002.5,N
1541179655.4,286047001.4,N
1541179675.3,286047002.1,N
1541179695.1,286047001.5,N
1541179715.8,286047002.0,N
1541179735.7,286046999.8,N
1541179755.5,286047002.5,N
1541179775.4,286047001.8,N
1541179795.2,286047004.1,Y
1541179815.0,286047001.4,P
1541179815.9,286047001.4,P
1541179835.8,286047002.1,P
1541179855.6,286047001.9,Y
1541179875.5,286047000.9,P
1541179895.3,286047000.3,N
1541179915.1,286047001.9,P
1541179935.9,286047002.2,Y
1541179955.7,286047002.3,P
1541179975.5,286047002.4,P
1541179995.4,286047000.3,N
1541180015.2,286047000.9,N
1541180035.1,286047000.4,N
1541180036.0,286047000.4,N
1541180055.8,286047001.1,N
1541180075.6,286047000.8,N
1541180095.5,286046998.7,N
1541180115.3,286046998.9,N
1541180135.1,286046998.6,N
1541180155.9,286047001.1,N
1541180175.7,286046999.0,N
1541180195.6,286046999.3,N
1541180215.4,286046999.2,N
1541180235.2,286046998.4,N
1541180255.1,286047000.5,N
1541180256.0,286047000.5,N
1541180275.8,286047001.2,N
1541180295.6,286046998.2,N
1541180315.5,286047000.9,N
1541180335.3,286047000.4,N
1541180355.2,286047001.2,N
1541180375.9,286046998.6,N
1541180395.7,286046998.1,N
1541180415.6,286047001.2,N
1541180435.4,286046998.3,N
1541180455.3,286047000.7,N
1541180475.1,286047000.9,N
1541180476.0,286047000.9,N
1541180495.8,286047000.6,N
1541180515.7,286046998.6,N
1541180535.5,286047000.5,N
1541180555.3,286046998.5,N
1541180575.2,286047000.3,N
1541180595.0,286046999.9,N
1541180595.9,286046999.9,N
1541180615.8,286047000.7,N
1541180635.6,286046998.5,N
1541180655.4,286046998.8,N
1541180675.3,286046998.9,N
1541180695.1,286046999.0,N
1541180715.8,286046997.0,N
1541180735.7,286046999.2,N
1541180755.5,286046999.3,N
1541180775.4,286046998.5,N
1541180795.2,286046998.4,N
1541180815.0,286046999.3,N
1541180815.9,286046999.3,N
1541180835.8,286046998.6,N
1541180855.6,286046999.5,N
1541180875.4,286046999.3,N
1541180895.3,286046998.7,N
1541180915.1,286046998.5,N
1541180935.9,286046998.2,N
1541180955.7,286046998.6,N
1541180975.5,286046998.9,N
1541180995.4,286046998.8,N
1541181015.2,286046999.3,N
1541181035.0,286046998.6,N
1541181036.0,286046998.6,N
1541181055.8,286046998.6,N
1541181075.6,286047000.9,N
1541181095.5,286047000.2,N
1541181115.3,286047000.5,N
1541181135.1,286047001.0,N
1541181155.9,286046998.6,N
1541181175.7,286046999.6,N
1541181195.6,286046999.5,N
1541181215.4,286046999.3,N
1541181235.2,286046999.4,N
1541181255.1,286046999.0,N
1541181256.0,286046999.0,N
1541181275.8,286046998.1,N
1541181295.6,286046998.1,N
1541181315.5,286046996.8,Y
1541181335.3,286046997.3,P
1541181355.2,286046998.9,N
1541181375.9,286047000.4,N
1541181395.7,286046999.9,N
1541181415.6,286047001.2,N
1541181435.4,286046998.3,N
1541181455.2,286047001.2,N
1541181475.1,286046999.3,N
1541181476.0,286046999.3,N
1541181495.8,286046999.1,N
1541181515.7,286046998.6,N
1541181535.5,286046999.5,N
1541181555.3,286046997.1,N
1541181575.2,286046997.2,N
1541181595.0,286046996.9,N
1541181595.9,286046996.9,N
